Location: Binningen
(47.7924°N, 8.7261°E)
Time: 08:34:17
(UTC+00:00)

Cosmos 1238 Rocket - Pass Details

Date: 17 May 2021
Orbit: 374 x 1021 km, 82.9° (Epoch: 15 June)

Event Time Altitude Azimuth Distance (km) Brightness Sun altitude
Rises 21:30:08 0° 350° (N) 3,568 8.4 -18.2°
Reaches altitude 10° 21:32:48 10° 349° (N) 2,538 7.3 -18.4°
Maximum altitude 21:38:33 77° 265° (W) 793 3.5 -18.8°
Enters shadow 21:40:45 34° 184° (S) 1,185 4.0 -19.0°
